Location: Kosice
(48.7167°N, 21.2500°E)
Time: 13:07:51
(UTC+01:00)

ISS - Visible Passes

Search period start: 17 December 2018 00:00
Search period end: 27 December 2018 00:00
Orbit: 401 x 408 km, 51.6° (Epoch: 18 December)

Date Brightness Start Highest point End Pass type
(mag) Time Alt. Az. Time Alt. Az. Time Alt. Az.
23 Dec -0.7 06:14:05 10° S 06:16:10 16° SE 06:18:14 10° E visible
25 Dec -1.8 06:04:55 10° SSW 06:07:51 30° SE 06:10:46 10° E visible
26 Dec -1.1 05:13:21 10° S 05:15:44 19° SE 05:18:08 10° E visible
